Regional Weather Roundup
Issued by NWS Charleston, SC

Current Version | Previous Version | Text Only | Print | Product List | Glossary Off
Versions: 1 2 3 4 5 6 7 8 9 10 11 12 13 14 15 16 17 18 19 20 21 22 23 24 25 26 27 28 29 30 31 32 33 34 35 36 37 38 39 40 41 42 43 44 45 46 47 48 49 50
000 ASUS42 KCHS 030727 RWRCHS REGIONAL WEATHER ROUNDUP NATIONAL WEATHER SERVICE CHARLESTON SC 300 AM EDT THU SEP 03 2015 NOTE: "FAIR" INDICATES FEW OR NO CLOUDS BELOW 12,000 FEET WITH NO SIGNIFICANT WEATHER AND/OR OBSTRUCTIONS TO VISIBILITY. NOT ALL STATIONS ARE QUALITY CONTROLLED BY THE NATIONAL WEATHER SERVICE. USE DATA WITH CAUTION...ESPECIALLY DEWPOINT OBSERVATIONS. SCZ027-030-031-034>040-042>050-030800- ...SOUTHEAST SOUTH CAROLINA... CITY SKY/WX TMP DP RH WIND PRES REMARKS N CHARLESTON PTCLDY 75 73 93 CALM 29.96F WATERFRONT PRK N/A 79 76 91 CALM 29.94F MOUNT PLEASANT LGT RAIN 75 75 100 CALM 29.96F JOHNS ISLAND FAIR 75 75 100 CALM 29.96F PINOPOLIS N/A 82 73 74 W6 29.88F MONCKS CORNER FAIR 75 72 88 CALM 29.96S SUMMERVILLE FAIR 72 72 100 CALM 29.97S BEAUFORT MCAS MOCLDY 76 74 93 CALM 29.96F BEAUFORT ARPT CLOUDY 77 77 100 CALM 29.96S HILTON HEAD IS CLOUDY 75 75 100 MISG 29.96F WALTERBORO SUNNY 73 72 94 CALM 29.97F ALLENDALE FAIR 72 72 100 CALM 29.96F ...SOUTHERN MIDLANDS AND PEE DEE... CITY SKY/WX TMP DP RH WIND PRES REMARKS GEORGETOWN NOT AVBL KINGSTREE NOT AVBL ORANGEBURG CLEAR 73 71 93 CALM 29.97F BARNWELL FAIR 73 72 94 CALM 29.97F AIKEN FAIR 72 70 94 CALM 30.00F MANNING FAIR 72 72 100 CALM 29.96F COLUMBIA PTCLDY 76 71 85 CALM 29.95F SUMTER PTCLDY 77 72 84 W7 29.93F FLORENCE MOCLDY 77 73 87 W5 29.95F MYRTLE BEACH PTCLDY 75 72 88 W6 29.96F N MYRTLE BEACH CLEAR 76 73 91 W3 29.94F $$ GAZ063-065-086>088-099>101-113>116-118-119-134>141-150-030800- ...SOUTHEAST GEORGIA... CITY SKY/WX TMP DP RH WIND PRES REMARKS SAVANNAH ARPT MOCLDY 75 73 93 N5 29.95F HUNTER AAF MOCLDY 76 76 100 NE2 29.92F FORT STEWART MOCLDY 75 73 94 N3 29.92F STATESBORO CLOUDY 73 32 21 CALM 29.96F SYLVANIA NOT AVBL CLAXTON NOT AVBL ...CSRA...CENTRAL AND FAR SOUTHEAST GEORGIA... CITY SKY/WX TMP DP RH WIND PRES REMARKS THOMSON PTCLDY 74 74 100 CALM 30.01F AUGUSTA-BUSH PTCLDY 72 71 97 CALM 29.96F AUGUSTA-DANIEL PTCLDY 77 71 82 CALM 29.98F SWAINSBORO FAIR 72 70 94 CALM 29.98F VIDALIA CLEAR 73 72 94 CALM 29.97F EASTMAN FOG 74 74 100 CALM 29.99F VSB 1/4 HAZLEHURST FOG 74 74 100 CALM 29.96F VSB 1/4 ALMA CLOUDY 73 73 100 W5 29.96F FOG WAYCROSS CLOUDY 77 77 99 NW6 29.90F JESUP CLOUDY 77 77 100 NW3 29.94F BAXLEY CLOUDY 75 73 94 CALM 29.96F BRUNSWICK CLOUDY 73 72 94 CALM 29.94F SAINT SIMONS MOCLDY 75 75 100 CALM 29.94S $$ SCZ027-028-034-036>038-045-046-048>050-GAZ119-141-030800- ...LAKE AND SUPPLEMENTAL COASTAL OBSERVATIONS... STATION/POSITION TIME TEMP WIND PRES WAVE SWELL AIR SEA DIR/SP/G HT/PER HT/PER/DIR (UTC) (F) (DEG/KT/KT) (MB) (FT/S) (FT/S/D) UPR LAKE MARION NOT AVBL WINYAH BAY NOT AVBL LAKE MURRAY 0600 80 280/ 6/ 8 1014.2F ACE BASIN NERRS NOT AVBL FORT PULASKI 0700 80 83 150/ 2/ 3 1014.5F SAPELO ISLAND 0600 77 120/ 3 1014.0F $$ ANZ835-935-AMZ111-154-330-350-352-354-370-450-454-472-030800- ...C-MAN AND BUOY OBSERVATIONS... STATION/POSITION TIME TEMP WIND PRES WAVE SWELL AIR SEA DIR/SP/G HT/PER HT/PER/DIR (UTC) (F) (DEG/KT/KT) (MB) (FT/S) (FT/S/D) BUOY 41004 0650 82 84 290/ 4/ 4 1014.3F 2/ 8 2/ 8 BUOY 41008 0650 78 84 120/ 4/ 6 1014.2F 2/10 2/110/10 FOLLY BEACH CMAN 0700 78 320/ 3/ 4 1014.8F CAPERS NEARSHORE 0608 81 340/ 4/ 6 1014.8F FRIPP NEARSHORE 0600 82 190/ 6/ 6 1014.4F STATION/POSITION TIME TEMP WIND PRES WAVE SWELL AIR SEA DIR/SP/G HT/PER HT/PER/DIR (UTC) (F) (DEG/KT/KT) (MB) (FT/S) (FT/S/D) 5E ST. MARYS GA 0621 85 N/A 2/ 4 FRYING PAN BUOY 0650 82 81 270/ 8/ 10 1014.5F 2/ 3 2/140/ 7 BUOY 41025 0650 82 85 270/ 14/ 16 1013.8F 1/ 8 2/120/ 8 CAPE LOOKOUT NC 0700 74 360/ 10/ 12 1014.0S BUOY 41002 0650 83 83 300/ 8/ 10 1014.2F 2/12 2/ 60/12 BUOY 41010 0620 84 86 150/ 6/ 8 1015.6F ST AUGUSTINE FL 0700 76 83 230/ 5/ 6 1015.3F $$

USA.gov is the U.S. government's official web portal to all federal, state and local government web resources and services.